Location: Peebles
(55.6412°N, 3.1714°W)
Time: 02:18:08
(UTC+01:00)

FENGYUN 1C DEB - Pass Details

Date: 09 July 2022
Orbit: 580 x 1160 km, 99.3° (Epoch: 11 August)

Event Time Altitude Azimuth Distance (km) Brightness Sun altitude
Exits shadow 23:53:24 10° 137° (SE) 2,709 ? -9.9°
Reaches altitude 10° 23:53:27 10° 137° (SE) 2,688 ? -9.9°
Maximum altitude 23:59:24 56° 62° (ENE) 1,245 ? -10.2°
Drops below altitude 10° 00:06:07 10° 347° (NNW) 3,018 ? -10.5°
Sets 00:08:51 0° 343° (NNW) 4,018 ? -10.6°
